Home   Weather   Louisville   Past weeks
Flag for USA

Past Weather in Louisville, Kentucky, USA — Yesterday and Last 2 Weeks

Now
74 °F

Clear.


Feels Like: 76 °F
Forecast: 78 / 71 °F
Wind: 9 mph from Southeast

Location: Standiford Field

Current Time: May 19, 2019 at 3:02:40 am

Latest Report: May 19, 2019 at 1:56 am


Visibility: 10 mi

Pressure: 29.83 "Hg

Humidity: 71%

Dew Point: 64 °F

Location of LouisvilleLocation

Past Weather in Louisville — Graph

°F

Louisville Temperature Yesterday

Maximum temperature yesterday: 89 °F (at 2:56 pm)
Minimum temperature yesterday: 68 °F (at 5:56 am)
Average temperature yesterday: 80 °F

High & Low Weather Summary for the Past Weeks

 TemperatureHumidityPressure
High89 °F (May 17, 2:56 pm)93% (May 5, 1:56 am)30.14 "Hg (May 5, 1:56 am)
Low48 °F (May 14, 6:56 am)32% (May 14, 4:56 pm)29.71 "Hg (May 12, 12:56 am)
Average66 °F68%29.93 "Hg
* Reported May 4 1:56 am — May 19 1:56 am, Louisville. Weather by CustomWeather, © 2019

Note: Actual official high and low records may vary slightly from our data, if they occured in-between our weather recording intervals... More about our weather records

Advertising

Louisville Weather History for the Previous 24 Hours

Scroll right to see more
 ConditionsComfort  
Time TempWeatherWind HumidityBarometerVisibility
1:56 am
Sun, May 19
74 °FClear.9 mph71%29.83 "Hg10 mi
12:56 am76 °FHigh level clouds.8 mph67%29.85 "Hg10 mi
11:56 pm
Sat, May 18
78 °FHigh level clouds.9 mph60%29.86 "Hg10 mi
10:56 pm79 °FHigh level clouds.9 mph58%29.84 "Hg10 mi
9:56 pm80 °FPassing clouds.9 mph56%29.84 "Hg10 mi
8:56 pm83 °FPassing clouds.9 mph50%29.83 "Hg10 mi
7:56 pm85 °FPartly sunny.9 mph46%29.84 "Hg10 mi
6:56 pm87 °FPartly sunny.9 mph43%29.85 "Hg10 mi
5:56 pm86 °FPartly sunny.14 mph42%29.86 "Hg10 mi
4:56 pm89 °FBroken clouds.15 mph38%29.86 "Hg10 mi
3:56 pm89 °FBroken clouds.15 mph39%29.86 "Hg10 mi
2:56 pm89 °FScattered clouds.15 mph41%29.88 "Hg10 mi
1:56 pm88 °FScattered clouds.16 mph43%29.89 "Hg10 mi
1:41 pm88 °FScattered clouds.13 mph43%29.91 "Hg10 mi
12:56 pm87 °FScattered clouds.14 mph43%29.91 "Hg10 mi
11:56 am85 °FPassing clouds.13 mph50%29.94 "Hg10 mi
10:56 am83 °FSunny.12 mph55%29.95 "Hg10 mi
9:56 am81 °FPassing clouds.8 mph58%29.96 "Hg10 mi
8:56 am77 °FPassing clouds.8 mph62%29.96 "Hg10 mi
7:56 am71 °FPassing clouds.5 mph73%29.96 "Hg10 mi
6:56 am68 °FPassing clouds.6 mph78%29.94 "Hg10 mi
5:56 am68 °FPassing clouds.3 mph76%29.92 "Hg10 mi
4:56 am70 °FPassing clouds.3 mph71%29.90 "Hg10 mi
3:56 am70 °FPassing clouds.3 mph73%29.90 "Hg10 mi
Weather by CustomWeather, © 2019

See weather overview